Regional Weather Roundup
Issued by NWS Huntsville, AL

Home | Current Version | Previous Version | Text Only | Print | Product List | Glossary On
Versions: 1 2 3 4 5 6 7 8 9 10 11 12 13 14 15 16 17 18 19 20 21 22 23 24 25 26 27
000
ASUS44 KHUN 212210
RWRHUN

WEATHER ROUNDUP FOR THE TENNESSEE VALLEY
NATIONAL WEATHER SERVICE HUNTSVILLE AL
500 PM CDT MON MAY 21 2018

ALZ001>004-212300-
NORTHWEST ALABAMA

CITY           SKY/WX    TMP DP  RH WIND       PRES   REMARKS
SHOALS AIRPORT FAIR      84  65  52 SE6       30.01F
$$

ALZ005>007-016-212300-
NORTH CENTRAL ALABAMA

CITY           SKY/WX    TMP DP  RH WIND       PRES   REMARKS
DECATUR AP     FAIR      81  66  60 SE10G21   30.04F
HUNTSVILLE AP  FAIR      79  64  60 S13       30.05F
MERIDIANVILLE  SUNNY     82  62  50 S10G17    30.05F
VINEMONT AP    FAIR      79  59  50 SE5       30.08F
$$

ALZ008>010-212300-
NORTHEAST ALABAMA

CITY           SKY/WX    TMP DP  RH WIND       PRES   REMARKS
ALBERTVILLE    CLOUDY    77  68  73 SE3       30.07F
FORT PAYNE     CLOUDY    79  61  53 CALM      30.06F
SCOTTSBORO AP  FAIR      81  64  57 VRB5      30.06F
$$

TNZ076-096-097-212300-
SOUTHEASTERN MIDDLE TENNESSEE

CITY           SKY/WX    TMP DP  RH WIND       PRES   REMARKS
TULLAHOMA      PTSUNNY   81  64  57 S8G15     30.06S
WINCHESTER     CLOUDY    81  57  44 S10       30.06F
$$

...SURROUNDING SITES...

CITY           SKY/WX    TMP DP  RH WIND       PRES   REMARKS
ATLANTA        PTSUNNY   81  63  54 SE9       30.09F
ANNISTON       PTSUNNY   78  68  71 E5        30.05F
BIRMINGHAM     PTSUNNY   79  65  62 E7        30.06F
CHATTANOOGA    FAIR      85  59  41 S12       30.05F
CORINTH        DRIZZLE   79  70  73 E7        29.99F
DALTON         PTSUNNY   81  63  54 S5        30.08S
GADSDEN        PTSUNNY   80  64  58 SE6       30.06F
GOLDEN TRNGL   FAIR      85  67  54 E8        29.99R
HALEYVILLE     FAIR      81  68  64 SE9G16    30.05F
JACKSON TN     PTSUNNY   82  72  71 SW6       30.00F
MEMPHIS        CLOUDY    79  71  76 SE7       30.00F
NASHVILLE      PTSUNNY   86  62  44 S10       30.02F
ROME           CLOUDY    81  67  62 SW6       30.06F
SAVANNAH       PTSUNNY   81  72  74 CALM      29.99F
SELMER         SUNNY     73  68  83 CALM      30.00F
TUPELO         CLOUDY    85  66  53 NE8       29.98F
TUSCALOOSA     FAIR      83  68  60 E9        29.99F
$$

...GULF COAST WEATHER...

CITY           SKY/WX    TMP DP  RH WIND       PRES   REMARKS
GULFPORT       FAIR      83  70  64 VRB5      29.95F
PASCAGOULA     FAIR      78  71  79 VRB3      29.97S
MOBILE         FAIR      80  72  76 N6        29.97R
GULF SHORES    CLOUDY    79  71  75 S8        29.95F
PENSACOLA      PTSUNNY   81  68  64 SW9       29.95
DESTIN         FAIR      79  69  71 S6        29.96F
APPALACHICOLA  PTSUNNY   81  75  82 S10       30.00S
$$





USA.gov is the U.S. government's official web portal to all federal, state and local government web resources and services.